GFSNW_prec_cthk_018.txt.gz
RH
41 32 26 23 23 26 26 26 26 24 24 23 27 27 41 31 29 25 28 31 38 40 40 42 43 41 35 32 29 29 33 33 40 31 28 26 26 29 33 43 38 52 53 49
43 33 27 23 23 24 25 25 33 30 24 25 28 28 31 30 26 26 25 32 37 40 41 47 45 44 39 30 31 30 30 32 43 39 37 30 27 29 34 37 42 42 50 45
43 34 29 24 22 23 24 30 39 36 24 26 22 35 33 34 25 24 23 31 37 37 39 39 45 42 36 27 25 28 30 31 30 37 30 27 26 27 30 34 47 43 47 40
42 36 31 26 22 22 27 40 36 31 23 23 25 34 34 32 28 25 25 28 35 36 40 41 43 40 35 28 21 27 28 30 27 27 28 27 27 27 28 31 34 41 38 42
42 38 34 27 22 24 40 47 42 32 21 27 27 42 36 31 28 29 29 28 33 38 37 36 41 37 33 26 23 25 28 33 27 26 31 33 27 29 30 30 30 34 37 48
44 40 35 28 26 36 47 49 44 26 27 33 34 35 37 34 35 30 30 33 38 44 41 38 40 38 36 31 28 30 28 35 33 35 37 36 37 31 29 30 32 34 39 44
47 42 36 29 37 40 53 50 45 37 39 39 37 39 38 39 37 35 36 34 39 44 44 42 39 39 39 34 35 32 34 40 41 39 35 35 31 27 28 31 35 37 43 48
49 46 39 32 46 50 59 60 49 38 41 37 34 37 44 42 42 40 39 36 38 44 46 47 44 47 40 39 39 39 35 39 47 41 45 30 29 30 31 33 35 41 46 51
50 51 47 41 44 47 45 45 44 39 36 39 41 40 40 43 42 43 42 40 42 44 52 50 51 49 35 42 40 40 41 40 39 51 39 35 27 31 32 33 40 39 42 51
49 50 50 51 47 44 43 41 41 38 38 38 41 41 42 42 43 44 45 45 48 47 53 58 54 53 44 48 46 45 49 49 47 52 49 39 29 33 35 43 35 40 44 52
53 48 48 49 50 48 45 41 39 37 38 41 42 42 41 42 40 45 46 49 49 53 53 54 55 55 49 46 42 44 43 48 52 53 53 44 29 36 39 34 36 42 48 54
53 50 46 42 41 41 40 37 37 35 35 39 44 45 45 43 44 44 48 46 46 48 51 53 54 53 54 48 48 40 40 34 41 39 38 30 32 33 36 37 41 46 52 59
60 54 49 44 41 41 41 40 40 38 36 37 41 48 49 49 46 46 47 49 49 48 44 48 49 46 47 49 48 41 35 36 41 41 35 36 39 40 43 48 52 56 62 66
64 60 56 49 44 42 42 40 40 40 39 40 41 42 47 50 49 48 49 50 51 50 48 49 48 46 43 45 40 43 37 40 41 44 42 46 46 48 53 57 59 63 69 76
64 63 60 56 53 49 46 44 42 42 41 43 45 44 43 42 44 47 48 49 50 50 51 54 55 53 54 54 53 48 40 41 45 43 42 44 45 50 53 57 64 70 76 76
62 62 62 59 53 50 52 53 52 48 45 43 46 49 48 49 47 46 48 50 50 51 51 54 53 51 49 56 56 44 42 43 45 44 47 48 49 54 58 65 72 76 79 82
63 62 61 61 59 56 54 53 56 52 51 49 53 51 50 50 52 53 53 53 54 55 56 56 55 55 58 58 58 48 52 52 51 51 51 53 55 60 67 71 78 81 84 82
64 63 62 61 60 61 60 59 56 52 50 50 55 54 50 53 56 58 59 62 66 68 71 71 70 70 75 71 59 57 56 56 55 55 58 62 69 74 80 87 91 88 83 75
65 64 65 64 60 57 56 55 52 51 51 52 52 51 51 52 58 64 69 73 76 74 75 79 79 76 73 59 58 57 57 59 62 69 73 76 80 87 94 93 90 85 78 74
67 66 64 62 60 57 56 57 53 54 56 58 55 53 57 58 63 66 70 74 77 74 72 75 73 66 60 59 59 59 60 64 74 81 83 85 91 95 94 89 86 83 74 60
78 72 70 68 68 69 68 67 65 64 64 63 63 67 70 70 70 76 84 86 86 81 76 82 73 66 59 61 64 66 71 76 82 88 91 94 97 94 85 89 84 69 62 57
95 94 96 95 91 87 91 90 87 83 83 82 81 80 82 84 85 90 92 95 95 88 84 86 78 73 76 75 76 78 81 83 87 91 98 95 92 94 90 78 64 59 57 55
99 98 98 98 98 98 93 90 86 86 85 85 86 88 91 94 97 98 99 99 96 92 93 90 86 87 86 85 86 88 91 93 92 92 95 95 87 79 73 67 63 63 58 51
92 98 98 98 97 94 91 90 89 88 89 90 91 93 94 95 99 99 99 98 98 97 93 89 93 95 96 92 90 89 89 88 91 95 91 88 85 74 65 63 62 54 44 39
72 88 94 94 93 93 92 91 93 94 94 94 94 94 95 96 97 98 98 98 97 97 96 94 95 97 97 94 91 90 90 91 89 87 83 80 71 65 62 53 44 39 36 35
59 64 75 88 93 95 93 93 93 93 92 92 95 96 97 98 97 96 97 98 98 98 98 96 95 95 96 97 98 95 92 88 85 78 73 69 60 51 43 40 38 36 34 35
49 52 57 58 68 74 80 83 85 88 92 92 94 94 94 97 97 98 98 97 97 96 97 97 97 95 93 91 87 84 81 77 71 64 55 47 43 41 38 35 34 35 37 40

GFSNW_prec_cthk_021.txt.gz
RH
40 38 36 34 28 30 33 32 29 27 26 27 34 42 44 35 33 30 29 31 32 39 38 34 36 37 34 30 34 39 40 40 42 32 28 25 25 26 28 37 35 49 49 39
41 40 35 32 28 29 31 30 34 28 25 27 31 33 38 35 31 29 30 31 35 41 45 46 44 42 39 34 32 35 37 38 44 38 33 29 28 28 32 32 37 38 46 39
44 41 34 30 27 27 30 31 38 32 28 23 23 24 31 31 30 28 28 30 36 42 46 47 50 46 42 31 30 31 34 35 32 36 30 29 25 26 30 32 44 39 38 31
46 41 34 28 27 27 29 35 34 27 29 26 26 28 30 30 29 26 26 28 33 39 44 45 46 45 39 30 30 29 30 33 31 30 29 25 25 26 28 31 31 35 30 33
48 43 35 28 25 26 29 38 36 27 23 20 26 31 35 32 28 26 25 25 33 38 40 38 45 41 35 29 30 28 33 36 29 31 31 31 27 26 28 28 27 32 31 35
50 46 36 28 25 26 31 42 36 28 29 22 29 31 33 29 29 28 29 30 32 35 41 38 39 38 35 32 29 29 29 34 32 29 36 33 29 27 29 27 27 29 36 33
52 47 37 28 24 24 40 42 38 30 32 26 27 31 31 32 32 32 30 29 32 36 43 43 41 40 40 39 36 31 34 38 36 36 35 32 23 26 27 27 27 31 33 35
55 47 36 27 24 38 47 46 42 32 35 33 33 32 33 38 39 38 39 35 35 37 40 47 46 49 42 44 46 39 34 38 44 41 42 30 25 28 29 30 28 32 33 37
56 46 35 28 35 42 68 54 42 36 36 43 40 42 41 41 42 42 41 40 38 40 44 46 46 45 38 45 43 44 42 38 38 52 38 33 22 27 28 30 37 31 35 36
60 48 35 37 37 47 63 55 48 37 38 41 42 40 39 37 40 43 43 43 43 43 48 54 53 53 44 49 48 51 52 51 47 55 47 37 25 30 31 40 30 32 34 36
58 48 38 38 44 63 67 60 46 40 37 40 40 38 38 39 39 43 42 45 46 49 52 53 54 55 51 50 46 50 50 53 53 54 55 40 26 34 35 31 29 34 37 40
62 52 48 42 43 43 41 40 40 38 38 41 41 41 40 40 42 42 44 43 44 46 49 51 53 54 55 51 51 45 48 40 44 42 38 28 29 29 31 34 36 40 43 49
59 56 54 52 52 50 47 43 41 36 38 41 44 44 42 42 42 42 42 44 41 43 41 45 47 45 48 50 49 43 41 40 42 39 31 33 35 37 38 41 44 46 51 59
61 55 49 49 46 43 40 39 38 36 34 36 43 43 47 47 47 47 46 45 46 47 45 47 47 44 43 45 41 45 40 43 42 44 40 41 41 42 44 46 48 54 60 62
60 55 51 48 45 43 41 40 39 39 37 39 42 41 45 48 50 50 50 49 50 50 51 52 50 47 48 49 51 49 42 45 48 45 41 43 42 44 48 52 55 57 61 67
68 64 58 53 50 47 45 42 40 40 38 38 44 45 45 43 43 45 45 47 46 48 47 50 49 46 49 55 55 42 38 40 43 44 46 48 51 54 55 56 60 65 72 76
67 67 65 64 60 57 52 48 50 50 48 45 50 48 47 47 48 48 49 50 51 53 53 53 52 52 54 57 57 42 50 51 53 54 56 56 55 55 59 67 75 78 80 84
68 67 66 65 65 63 61 57 55 56 56 55 59 57 53 54 55 56 56 56 56 58 60 61 62 66 69 68 54 55 56 58 58 58 59 60 63 66 74 81 82 84 90 94
68 67 66 65 65 64 64 64 63 60 57 56 56 52 52 54 57 60 61 62 64 64 68 70 72 72 69 62 59 58 57 58 59 61 63 68 73 78 85 86 87 96 94 86
69 69 68 67 67 67 65 66 61 60 60 58 56 51 52 50 54 57 60 64 67 68 66 69 67 63 62 63 65 66 68 68 70 75 79 81 83 88 92 97 97 95 91 88
74 75 74 72 71 69 68 69 66 65 63 59 58 56 54 56 61 70 75 79 77 76 73 82 77 76 73 73 71 70 71 74 79 82 85 90 93 97 98 93 93 95 81 68
81 73 73 73 71 70 72 73 73 71 71 67 65 66 71 76 82 88 89 90 89 86 83 86 80 78 77 78 78 79 82 84 86 89 91 93 97 97 97 92 81 74 70 71
90 88 84 79 78 80 79 77 77 74 77 84 89 92 95 95 95 96 98 98 95 91 91 89 86 85 87 87 86 86 88 89 92 93 95 95 90 89 90 85 77 69 66 64
97 98 98 97 94 90 91 90 91 91 92 93 93 94 95 96 98 98 98 98 97 95 91 87 89 89 89 88 88 85 89 95 95 91 88 88 85 79 74 69 68 66 64 57
95 96 98 95 93 93 92 96 97 97 96 95 96 96 96 96 97 96 98 98 97 94 92 92 93 95 96 92 91 93 93 93 91 92 90 87 78 71 70 67 60 52 46 44
68 78 89 92 92 93 93 93 94 95 96 97 97 96 96 96 96 94 95 96 94 95 97 98 98 97 97 97 97 97 92 90 90 87 82 75 68 61 55 50 48 46 44 41
61 64 66 72 76 77 77 79 81 82 84 87 89 89 91 95 96 96 97 97 97 97 96 95 95 94 94 92 88 84 81 76 71 66 61 57 52 48 47 45 42 40 40 40

GFSNW_prec_cthk_024.txt.gz
RH
50 48 42 43 45 39 37 40 36 34 35 35 41 45 48 39 33 33 31 31 34 38 39 34 34 34 33 33 33 37 41 46 47 33 33 29 27 27 28 35 31 46 45 35
50 48 41 46 46 37 38 36 39 36 34 35 42 45 46 40 35 34 33 34 35 43 48 47 39 38 38 34 29 36 41 44 50 38 32 29 28 31 31 31 35 37 45 33
49 47 43 45 44 40 43 38 43 39 35 27 34 42 42 39 36 33 32 35 35 42 50 50 53 48 42 37 33 34 37 41 38 37 29 30 29 30 31 30 40 36 36 26
49 43 45 44 42 39 43 39 40 33 36 31 29 35 36 38 34 31 30 31 34 40 49 50 52 50 42 38 37 33 33 37 37 35 34 28 25 25 28 28 28 32 26 29
47 43 46 42 41 38 43 40 38 32 29 27 27 31 33 31 31 29 27 27 33 35 43 43 46 43 40 34 35 35 35 36 33 36 36 33 28 25 26 27 27 30 29 28
47 45 45 39 39 36 40 39 36 30 31 29 28 28 31 31 29 30 28 26 27 32 40 40 39 38 37 33 32 35 33 35 33 32 36 32 29 23 26 26 25 25 29 24
50 49 45 37 36 35 35 37 39 34 32 28 28 25 30 31 29 30 30 28 29 32 38 43 41 40 41 40 39 34 33 33 35 37 34 32 20 22 24 26 26 26 26 27
52 52 43 36 33 35 34 41 41 36 37 26 26 27 33 33 35 35 34 31 30 33 37 45 48 49 43 43 45 41 35 35 43 40 40 27 20 23 27 30 28 28 28 31
55 53 42 34 31 33 37 48 43 38 34 29 26 30 33 37 38 37 39 38 34 35 39 40 45 48 41 42 43 45 43 40 39 49 37 33 23 24 27 28 36 26 28 32
58 51 43 34 31 33 50 55 48 42 35 34 34 32 33 30 36 42 40 41 39 37 42 48 46 43 40 46 46 53 55 55 48 57 47 37 26 29 30 37 31 27 28 30
60 51 42 32 31 42 50 59 50 45 42 44 42 41 41 37 37 40 40 43 45 45 46 49 50 51 48 45 41 49 49 55 56 57 56 44 30 35 37 32 28 28 32 35
64 53 39 34 38 53 72 62 54 45 42 47 46 45 43 36 38 37 42 41 41 41 46 48 49 51 50 46 46 43 46 42 45 43 40 31 32 32 32 32 34 36 38 40
66 54 42 44 44 66 79 67 56 48 46 47 47 45 43 42 42 42 41 41 39 41 41 44 44 42 44 47 47 43 41 40 41 39 33 34 34 34 36 39 41 44 47 51
69 57 46 48 53 62 68 66 59 49 46 48 50 47 46 44 43 43 42 40 41 42 41 43 46 43 42 44 41 43 40 41 41 43 39 40 39 40 42 42 44 47 50 55
71 68 55 50 49 50 57 59 49 41 37 39 44 46 46 47 47 48 48 48 46 47 50 53 51 47 47 49 49 47 39 42 47 46 40 41 40 42 44 47 50 55 59 62
67 65 65 65 62 53 46 44 43 39 36 35 42 43 46 47 49 51 51 50 49 48 48 51 50 46 48 56 56 40 41 43 45 46 48 51 53 57 59 59 61 62 66 72
67 65 60 56 52 47 43 41 44 41 39 37 45 45 44 44 44 45 47 48 49 51 52 54 54 54 54 58 59 42 51 56 58 60 61 61 63 63 62 63 66 70 77 80
70 68 65 61 58 55 53 51 51 47 46 45 50 52 50 52 54 53 52 52 53 56 59 60 59 61 63 64 56 59 60 61 62 64 64 63 63 65 69 74 81 85 88 93
74 73 72 70 67 67 68 65 61 59 56 59 62 61 63 63 62 60 59 59 61 60 62 62 63 65 67 64 62 61 61 63 64 66 71 75 76 78 80 86 88 92 96 97
76 74 73 73 73 72 72 73 70 68 68 67 66 67 65 62 60 58 57 59 62 61 61 64 64 64 66 64 68 73 75 74 75 78 80 83 84 88 91 93 94 96 97 96
80 78 78 78 78 76 74 74 72 72 71 70 70 68 65 60 58 60 62 65 65 65 64 72 73 75 76 78 80 81 81 81 81 83 84 87 91 91 91 95 93 90 87 82
70 71 74 75 74 73 74 77 75 73 72 69 69 67 64 64 65 69 72 74 76 78 78 85 84 83 86 87 87 87 86 85 83 85 86 88 91 93 92 92 92 88 83 77
78 78 77 77 80 81 81 83 76 70 68 68 68 72 77 81 88 93 95 95 92 90 91 92 89 89 89 89 88 86 86 87 87 87 87 88 90 88 86 83 77 73 71 68
93 91 91 87 86 82 79 76 74 73 78 83 87 88 91 96 98 98 98 97 97 95 92 90 90 91 91 90 89 93 93 91 87 87 86 84 82 77 72 70 69 65 61 56
98 98 97 93 90 91 91 91 91 90 91 95 96 97 97 98 98 97 97 97 95 92 91 93 94 96 95 95 94 94 92 89 88 87 84 83 75 69 66 62 59 55 51 49
97 97 96 97 97 96 96 97 97 97 96 96 96 95 96 96 98 96 96 96 93 94 95 95 96 96 96 94 92 91 89 86 82 76 69 64 60 55 52 49 47 45 44 44
71 76 84 89 91 93 93 93 92 90 89 88 87 87 87 88 89 86 83 84 86 89 92 95 97 96 95 92 87 81 75 70 64 59 54 49 46 44 42 40 40 42 43 43

GFSNW_prec_cthk_030.txt.gz
RH
45 66 75 44 49 53 50 42 44 42 51 57 45 39 29 33 40 35 27 24 24 23 25 26 23 28 29 30 28 28 29 34 37 36 33 28 29 32 28 26 27 31 29 18
65 77 80 50 55 52 49 44 52 53 58 51 45 35 29 40 40 33 28 29 32 30 29 32 29 27 27 27 26 29 29 34 39 38 37 31 31 29 25 25 26 27 38 18
73 83 72 61 62 61 56 51 57 60 60 43 39 31 35 42 42 36 34 33 34 34 38 39 40 32 31 30 31 29 30 32 35 37 38 33 32 28 25 23 28 24 23 16
97 84 68 71 73 68 60 56 55 60 53 44 38 32 38 44 44 39 35 33 30 33 42 47 47 42 36 36 36 36 34 32 33 36 39 35 30 26 26 25 24 25 16 18
98 92 81 84 81 74 65 55 58 61 42 41 38 36 42 46 44 38 35 34 32 34 37 39 48 45 43 41 42 39 36 34 36 39 39 36 32 27 25 26 24 23 20 18
99 96 89 86 78 64 65 54 55 51 46 40 38 33 41 47 46 42 36 35 35 35 36 40 47 47 45 41 39 42 39 37 35 33 34 33 39 28 24 23 23 23 24 20
99 93 87 83 73 62 63 56 51 49 48 42 37 34 43 46 46 43 38 34 31 32 35 38 40 42 43 40 39 39 39 36 37 38 36 49 20 20 21 22 21 21 22 22
95 88 81 77 69 66 62 54 48 46 52 43 37 34 45 50 47 43 40 34 30 31 31 34 38 45 47 44 42 38 34 33 41 47 32 23 17 19 21 26 23 25 24 24
89 80 77 71 68 65 65 55 48 44 46 40 34 35 44 49 46 44 43 36 34 33 35 39 44 44 41 44 47 45 40 37 37 43 53 57 26 26 28 29 30 25 25 28
82 77 72 68 66 63 63 57 54 48 46 41 37 34 39 44 42 41 39 36 36 35 39 50 46 40 35 37 39 49 50 51 53 47 52 36 30 29 30 33 31 28 28 28
77 72 66 63 63 63 65 57 54 53 52 47 40 34 32 35 37 38 37 39 40 40 46 48 41 45 36 35 34 39 41 48 54 48 56 52 28 31 35 32 30 30 32 37
70 66 64 62 59 60 63 55 52 48 47 49 43 36 30 30 37 37 36 37 35 39 43 44 44 49 46 41 40 37 39 37 39 37 36 31 32 33 34 35 36 37 40 43
65 64 62 59 60 65 59 50 49 49 52 53 50 43 35 32 35 39 39 39 41 41 39 41 44 51 42 50 41 38 35 36 37 36 33 35 36 37 38 40 41 42 43 44
65 61 59 63 65 61 50 48 61 64 60 60 51 44 45 41 38 39 39 43 43 42 43 45 45 46 41 43 40 39 38 40 40 39 37 38 39 42 44 46 50 53 56 60
62 64 62 58 56 52 50 56 75 76 68 66 57 56 58 56 52 50 47 44 45 47 48 50 48 44 46 48 48 50 45 44 45 45 44 45 47 52 55 59 62 65 66 66
64 65 57 51 47 51 63 72 85 72 67 63 73 68 67 61 56 53 51 50 49 50 50 53 51 50 52 59 52 51 50 52 54 54 54 59 62 66 67 68 68 67 67 68
60 61 58 48 57 64 61 82 77 68 64 56 69 66 64 62 59 58 56 53 52 54 58 60 58 55 54 58 58 57 57 59 61 63 64 67 67 68 68 70 74 80 83 84
65 60 58 68 78 78 84 82 74 67 60 53 59 61 65 62 62 62 60 60 61 60 60 58 56 58 60 65 61 64 65 65 65 63 64 67 69 75 79 83 87 88 90 90
81 82 81 85 87 84 80 74 70 66 60 58 56 57 57 55 55 53 53 53 55 55 58 61 62 66 68 66 66 66 65 65 67 71 75 82 86 89 90 92 91 89 89 90
67 67 65 70 74 75 74 68 62 58 57 55 56 53 52 53 58 61 61 63 66 64 67 69 70 66 64 64 63 63 65 70 78 83 86 90 91 91 90 88 87 87 86 86
73 70 77 75 68 66 65 66 64 63 60 57 57 59 59 62 65 72 73 74 73 73 69 70 70 67 63 64 68 75 80 83 85 87 89 86 83 83 80 80 81 81 77 71
77 79 80 76 75 73 75 77 77 72 75 73 74 74 75 76 79 78 79 78 74 72 65 68 69 68 78 86 90 89 89 88 86 86 84 82 81 80 76 70 64 61 59 56
82 81 81 81 86 89 90 86 82 81 79 80 79 79 78 77 75 75 73 74 75 68 73 77 78 85 90 93 93 93 90 87 83 78 73 69 66 63 59 54 50 46 45 44
90 93 96 95 93 86 82 80 81 81 76 72 70 71 73 76 78 78 78 80 83 87 85 85 90 93 96 97 96 91 86 79 78 77 74 67 58 54 50 46 46 45 41 38
91 89 92 91 86 83 78 72 71 73 79 83 83 81 81 83 89 92 95 95 94 88 89 93 96 97 97 97 94 89 82 81 76 67 60 56 52 46 41 40 39 39 39 38
95 93 93 91 89 90 89 87 88 89 90 90 89 92 95 96 97 97 98 97 94 93 94 94 96 95 95 93 87 82 76 67 60 57 56 52 44 37 34 37 40 39 37 35
97 95 97 98 98 98 98 98 97 97 97 98 97 98 98 94 95 95 93 93 91 93 92 91 91 88 83 78 73 68 62 60 55 45 39 39 38 38 41 41 40 40 41 41

GFSNW_prec_cthk_033.txt.gz
RH
40 31 28 35 56 61 39 55 51 45 41 52 53 48 39 39 38 33 29 31 33 28 32 28 32 41 39 30 34 36 37 39 48 42 36 31 32 36 36 34 35 29 34 21
47 43 34 38 65 59 48 58 56 58 49 53 57 48 38 46 41 35 30 27 31 28 29 31 26 31 37 33 32 34 32 27 42 44 32 28 26 25 28 30 30 27 36 25
58 53 45 53 75 60 55 64 62 65 59 53 53 51 42 41 41 41 33 27 35 31 33 33 35 35 29 28 27 27 27 26 39 42 48 43 36 28 28 28 29 24 24 24
58 60 54 67 76 58 67 68 50 49 55 51 58 51 42 39 39 42 34 36 33 38 40 40 42 42 31 30 31 29 30 31 32 33 35 38 35 33 30 27 24 27 23 22
67 59 65 85 86 73 79 66 56 55 56 52 56 48 40 37 43 40 32 36 34 41 45 40 50 48 44 38 38 37 35 36 35 35 32 32 36 33 29 26 23 23 23 23
72 70 78 87 97 77 68 70 61 59 65 56 46 46 42 43 52 44 41 34 40 39 44 40 41 53 48 47 45 43 41 39 38 33 33 33 38 29 26 26 25 26 27 25
67 84 88 89 89 68 71 74 72 70 70 57 43 45 44 50 54 45 40 42 40 38 35 34 37 44 48 47 47 43 41 42 44 41 41 52 22 24 22 23 23 24 26 23
79 95 97 91 96 83 84 92 78 71 71 61 48 46 44 52 58 56 44 39 37 34 32 34 42 46 47 41 38 38 39 41 45 52 34 27 23 21 23 24 24 27 26 25
87 98 98 96 98 87 86 93 80 73 62 54 45 46 48 55 57 53 50 44 38 31 32 36 38 41 38 47 46 40 39 39 39 39 53 57 33 27 25 27 32 30 28 28
94 96 96 97 93 90 95 91 75 68 56 50 44 43 46 52 54 50 49 46 43 34 37 47 43 42 36 40 44 54 52 52 52 47 52 38 31 29 28 32 38 33 29 28
97 98 94 91 82 88 92 86 65 61 64 53 45 45 42 50 55 56 47 46 45 40 40 48 43 48 39 37 35 39 43 48 53 50 58 52 29 29 32 38 31 32 32 34
98 87 86 86 83 88 95 81 64 56 56 54 46 40 40 46 57 58 49 43 38 35 39 43 50 50 45 41 42 35 41 38 43 37 42 39 33 32 32 33 33 36 37 39
91 89 87 85 80 86 89 79 63 55 55 58 52 47 37 37 44 46 46 42 37 37 39 42 46 51 41 50 41 42 37 36 36 34 33 36 35 36 37 38 40 42 44 47
88 85 83 78 75 81 84 78 61 58 54 63 58 48 44 35 35 39 40 36 38 40 44 45 46 50 41 44 42 39 41 38 38 39 37 38 41 46 44 45 48 53 57 62
79 76 74 76 74 83 86 68 59 54 57 58 58 51 46 40 36 34 38 44 41 44 50 50 51 45 45 46 45 45 40 44 46 47 44 44 47 51 51 55 59 62 65 66
73 70 70 70 71 84 81 74 62 61 65 66 65 56 53 49 45 41 44 47 50 52 52 53 50 48 50 56 50 50 46 44 45 49 51 54 56 57 60 62 64 63 63 65
70 70 69 70 80 84 78 62 63 79 75 72 65 61 60 60 55 55 60 63 61 56 57 57 57 53 53 58 56 54 50 50 52 54 59 66 65 67 67 66 67 70 74 78
73 73 73 76 82 80 67 64 85 82 73 74 75 73 72 68 71 69 62 63 62 62 61 61 61 60 62 64 55 55 56 59 62 64 65 66 68 68 70 75 78 81 83 84
71 69 69 74 83 78 70 75 85 74 72 63 64 75 75 75 70 69 70 67 68 66 67 67 63 63 61 57 59 63 65 66 65 66 66 68 70 76 81 84 83 83 83 81
79 78 78 78 77 72 71 76 82 77 68 64 64 65 63 66 70 69 65 64 64 60 58 58 63 62 62 67 69 66 64 65 68 67 73 79 84 86 86 87 85 83 79 77
77 76 82 89 91 92 86 84 80 75 70 67 68 64 61 61 62 62 62 62 64 67 65 70 68 66 69 71 68 65 65 70 76 82 84 84 84 83 81 80 78 71 64 54
79 81 87 87 81 79 83 81 76 72 71 68 66 64 61 60 61 63 67 70 70 74 72 77 75 70 70 67 68 75 81 83 84 85 84 83 81 80 75 65 59 48 39 33
75 75 76 78 79 85 85 79 73 68 65 64 64 65 66 68 69 75 79 84 87 80 82 77 71 67 67 72 81 88 90 89 88 86 81 73 66 59 55 45 39 39 33 32
87 90 90 88 88 84 81 77 77 79 79 81 81 81 83 83 84 85 87 84 82 82 78 70 69 75 84 91 93 93 91 85 84 80 73 62 53 48 43 40 37 34 31 30
94 93 96 92 87 86 87 87 86 84 83 82 80 77 76 77 79 80 84 87 87 81 81 83 87 91 94 95 95 92 86 85 85 74 61 54 48 47 44 38 34 33 32 29
96 96 94 92 93 92 89 86 85 85 81 76 74 78 83 87 88 88 87 86 84 86 89 93 96 98 98 97 94 92 90 87 74 63 54 51 47 40 35 36 37 33 31 33
95 96 96 96 94 94 91 89 88 88 89 91 92 93 94 92 92 95 94 97 96 96 95 95 95 96 95 93 90 85 77 67 61 58 50 41 39 40 40 39 39 37 40 42

GFSNW_prec_cthk_036.txt.gz
RH
41 37 33 24 21 34 55 58 47 35 43 48 41 52 42 41 44 45 39 39 43 33 44 41 38 44 40 32 32 34 33 40 47 40 39 30 36 48 43 51 33 39 42 36
50 47 36 30 25 37 57 54 53 56 45 41 42 48 44 40 45 49 37 36 40 38 34 44 36 44 54 40 29 32 43 36 40 40 47 34 28 24 26 38 39 39 52 31
59 51 47 39 27 40 59 56 66 71 59 35 45 44 43 44 43 43 43 36 37 40 28 35 38 35 41 40 34 30 33 35 30 41 42 52 56 40 30 33 45 34 29 24
63 61 48 46 32 47 70 65 51 54 62 50 49 49 45 42 43 39 49 42 34 40 32 31 36 40 38 33 30 26 27 26 26 30 40 51 48 45 41 36 35 36 27 26
69 67 60 54 39 66 76 64 52 50 58 57 55 49 44 44 47 41 50 47 41 46 39 36 42 45 46 33 28 28 29 32 34 37 35 36 34 35 35 34 32 30 26 28
72 74 64 62 49 81 73 62 56 62 58 57 58 49 55 52 51 46 47 42 47 44 50 51 50 51 63 54 46 39 42 42 44 42 35 33 35 26 26 28 27 29 30 29
75 70 69 63 62 79 65 68 62 70 64 54 44 54 54 54 45 65 51 50 50 52 48 47 47 42 52 53 52 51 51 49 51 51 45 48 25 25 24 24 24 26 30 31
82 72 71 60 66 78 74 81 80 75 79 54 60 61 61 52 48 72 52 58 56 55 39 39 38 39 42 46 47 48 49 49 54 62 44 31 28 25 24 25 26 27 27 26
84 72 63 56 77 76 81 92 83 86 83 62 50 53 58 52 57 75 55 55 54 46 41 42 37 44 38 45 42 36 36 43 51 48 55 55 37 30 27 25 34 32 31 33
87 73 54 68 80 80 86 93 85 98 82 74 69 54 53 60 56 86 53 48 45 42 46 45 41 38 40 53 53 58 53 52 56 53 58 45 37 33 30 37 43 37 37 33
81 63 56 87 88 87 90 88 96 86 88 71 68 64 57 60 56 87 55 50 47 46 45 44 45 50 43 39 38 44 46 54 58 57 64 58 33 32 34 41 37 33 33 32
66 48 80 97 91 87 84 78 74 85 92 77 66 65 56 57 63 63 52 43 43 40 43 44 48 52 47 42 43 36 43 39 46 42 48 38 35 34 35 35 34 35 36 38
64 74 86 95 96 90 74 94 97 99 95 76 67 70 56 58 69 58 53 53 50 44 43 40 45 50 41 47 41 46 39 38 38 38 33 38 38 37 39 38 41 41 43 46
83 87 92 96 93 87 82 86 94 96 72 76 73 59 51 49 51 56 52 55 50 48 43 41 42 47 38 43 40 43 43 40 36 36 36 38 42 47 44 46 46 47 52 53
91 91 95 90 91 97 98 93 87 83 72 68 69 58 50 43 41 47 47 52 51 49 46 46 47 42 44 45 42 42 40 40 43 47 45 44 51 48 48 48 50 52 56 60
93 97 91 94 95 91 94 95 79 71 63 58 72 66 57 47 43 42 45 52 52 50 49 51 48 45 47 52 49 46 44 43 45 50 50 51 49 48 51 56 60 64 63 60
94 94 93 91 96 95 94 81 71 68 69 65 69 70 63 56 51 49 47 50 55 54 52 50 51 50 54 55 57 53 49 51 51 49 52 53 55 58 63 65 64 62 63 67
89 90 92 95 92 97 93 84 76 69 70 73 74 73 66 60 61 58 53 54 56 57 57 59 62 59 61 63 57 55 54 53 52 52 56 61 66 67 67 66 66 69 72 74
92 92 93 95 98 96 88 85 78 77 76 81 76 71 68 64 64 61 62 61 65 64 71 71 67 67 66 61 59 56 58 57 59 62 64 66 67 67 68 69 74 78 78 78
87 90 94 97 95 91 88 88 79 84 83 77 78 74 71 67 71 71 69 75 77 72 72 70 69 67 62 64 58 59 62 64 65 68 69 69 69 70 75 81 82 80 77 75
90 92 93 95 92 88 87 84 80 91 88 75 77 78 80 77 82 80 78 78 77 74 69 69 66 60 57 62 65 69 69 71 70 67 69 72 76 80 80 81 81 73 64 53
86 87 92 89 87 89 84 83 86 93 88 78 76 73 73 75 74 76 79 71 66 67 63 67 65 62 65 72 75 75 73 72 69 72 76 79 83 83 83 80 65 58 50 42
85 84 85 88 88 94 89 87 87 84 81 79 76 75 72 70 68 67 67 69 73 66 73 67 67 70 77 79 75 71 70 71 75 81 85 86 86 79 68 61 57 52 42 35
84 89 93 97 97 95 93 91 86 83 80 78 76 75 72 71 70 70 71 75 74 78 78 72 78 80 77 74 75 80 85 88 88 88 83 75 72 68 61 53 47 40 37 33
93 94 96 94 92 91 90 88 85 83 82 82 81 77 74 79 81 86 88 90 90 84 78 75 76 79 84 89 92 94 92 90 89 86 80 73 70 65 55 46 42 39 33 30
97 96 96 94 94 94 93 92 91 90 90 88 86 88 88 89 88 85 84 83 80 81 82 84 83 88 95 97 96 93 91 93 92 82 73 68 65 57 47 41 37 34 34 35
97 97 98 98 97 95 93 92 94 95 94 93 91 92 90 85 84 85 87 90 91 92 92 96 98 98 98 97 97 96 94 89 81 75 70 61 51 45 42 41 39 40 42 44

GFSNW_prec_cthk_039.txt.gz
RH
46 41 35 38 29 22 29 39 51 40 53 47 51 52 48 36 39 47 48 44 40 33 36 47 38 33 43 40 40 49 44 48 63 54 41 39 33 39 53 52 36 46 50 40
49 50 42 44 37 28 34 40 48 56 51 41 50 46 42 37 43 51 48 44 37 34 38 56 50 40 47 52 50 40 35 39 53 51 51 44 41 33 34 42 45 45 49 41
60 53 52 50 47 33 37 48 62 65 53 35 41 45 34 36 38 55 47 44 39 38 38 46 53 45 48 51 48 40 35 36 38 39 32 41 45 53 39 30 47 40 42 36
62 58 62 50 48 45 45 52 53 49 56 52 43 46 34 37 44 54 48 49 37 38 44 46 46 46 43 42 38 37 37 34 31 28 27 38 42 54 47 42 40 44 38 36
63 54 67 58 52 49 54 62 51 52 55 56 51 43 35 35 40 52 47 50 38 34 42 40 43 41 36 34 33 30 30 33 27 29 25 33 37 47 44 41 38 37 38 38
59 53 52 66 59 60 56 60 53 56 49 64 58 41 30 35 38 49 46 44 45 35 41 44 42 43 41 38 39 32 28 30 37 37 32 31 34 26 26 26 34 34 38 37
53 50 53 68 65 56 55 56 66 67 53 60 46 44 37 40 36 52 40 45 49 49 53 55 53 48 49 48 64 53 44 45 53 52 43 40 25 25 25 29 31 32 32 33
56 57 64 74 70 51 54 63 71 74 69 55 58 45 45 42 44 52 53 51 54 57 51 58 64 64 55 47 63 53 55 65 62 57 53 38 32 28 27 28 31 28 28 30
70 70 76 71 56 50 61 70 73 78 89 62 47 48 50 53 61 68 63 55 64 53 69 63 57 59 44 40 39 44 49 52 56 59 56 51 38 32 29 29 40 33 31 32
72 76 76 72 58 55 64 75 81 69 82 74 68 50 40 55 63 69 64 75 70 58 71 71 53 40 31 45 46 48 52 54 55 59 58 48 37 34 32 39 43 36 34 34
96 88 86 74 57 57 66 78 74 81 85 84 77 66 55 67 63 64 66 83 78 72 58 60 45 44 37 49 50 51 50 60 60 64 64 55 35 33 35 38 35 35 34 34
98 94 82 66 53 47 67 91 80 68 79 87 83 66 56 62 57 60 67 79 76 61 50 43 44 44 46 44 51 41 46 42 46 45 47 36 32 33 35 35 36 38 38 36
90 85 71 56 41 64 75 88 94 91 93 91 88 75 70 67 62 56 62 63 76 50 39 42 45 49 43 48 46 39 39 38 42 40 39 37 38 36 36 34 36 38 39 40
83 72 60 47 45 80 78 81 91 95 98 99 89 82 77 70 69 57 56 71 74 59 45 42 43 44 39 44 38 42 41 40 40 40 43 42 44 43 43 43 41 43 44 45
74 64 51 50 80 78 81 88 92 90 97 95 98 88 81 78 74 70 65 81 67 54 50 49 45 40 40 41 42 45 41 41 40 44 38 38 46 45 45 47 50 49 49 53
62 55 78 77 93 92 96 98 96 98 94 97 98 91 79 79 81 79 73 71 66 57 54 53 46 43 40 49 54 45 43 41 40 42 42 44 49 52 53 51 51 54 58 60
63 72 72 81 87 87 95 95 95 86 99 96 91 84 87 79 68 70 73 70 62 57 57 56 51 49 49 52 54 48 48 48 47 50 49 53 52 54 55 56 59 60 60 61
79 82 80 88 87 96 98 97 95 92 83 75 80 78 71 67 62 59 57 58 56 58 58 57 57 55 54 56 52 53 53 52 52 52 51 52 56 60 63 64 63 63 63 65
82 90 94 98 96 98 96 90 86 76 73 74 77 78 80 71 68 65 63 59 62 59 65 63 61 63 61 57 57 60 58 54 58 58 59 62 66 68 68 70 69 67 70 73
97 97 98 98 99 94 82 76 75 73 75 72 79 75 78 72 71 71 68 63 63 63 63 63 68 66 65 68 68 67 62 59 60 63 67 70 70 70 72 72 75 76 75 75
89 98 97 86 79 76 80 81 76 71 73 71 77 83 82 76 78 74 70 71 69 70 70 71 71 70 70 72 70 69 66 68 69 70 72 73 73 74 77 79 76 77 77 67
90 89 90 90 88 83 78 78 75 74 77 74 80 89 87 84 77 80 80 74 77 79 74 80 72 67 67 67 69 69 70 73 74 77 77 77 77 78 79 80 80 72 67 62
93 92 93 92 89 89 84 82 83 79 81 84 86 94 92 90 84 82 86 88 86 78 77 71 70 69 68 69 71 73 77 77 77 78 78 79 82 86 87 78 75 70 66 63
88 91 93 92 96 92 89 83 83 83 84 85 88 88 85 84 84 80 77 80 79 80 76 70 70 71 73 74 77 81 79 78 81 83 87 91 90 84 79 77 74 68 63 55
87 87 93 92 90 89 89 88 91 88 90 91 94 91 87 84 81 80 80 81 78 76 74 74 77 82 84 81 79 80 82 86 90 89 84 83 80 77 76 73 67 61 52 41
93 90 91 88 86 89 92 96 97 94 93 91 88 88 86 87 87 85 84 81 82 85 88 88 84 81 81 86 92 93 94 97 95 91 86 83 81 77 71 67 58 46 38 37
97 97 97 97 96 96 97 97 96 96 95 94 93 93 96 94 96 96 96 95 94 93 88 86 91 95 96 98 97 97 98 97 95 88 86 85 80 71 64 55 44 42 43 45

GFSNW_prec_cthk_042.txt.gz
RH
52 42 34 39 38 37 32 34 42 38 32 53 55 55 60 58 41 45 51 54 48 39 36 33 32 32 31 36 34 42 48 53 54 47 42 51 47 40 44 58 41 45 52 42
61 45 37 41 41 37 33 39 41 50 33 50 44 47 54 50 32 47 52 52 48 41 38 38 35 35 40 44 39 37 43 51 58 46 52 46 45 40 47 51 61 49 56 42
61 50 37 51 49 46 38 47 52 64 45 34 36 41 45 44 28 45 53 55 52 48 39 41 39 43 42 46 48 52 49 48 42 43 47 47 49 50 52 47 52 45 45 35
62 52 42 52 52 54 47 50 49 43 51 43 40 42 45 40 36 43 47 57 54 52 42 43 43 49 46 46 50 57 54 46 39 34 34 35 36 38 48 52 47 45 34 36
60 47 39 56 59 62 61 60 50 42 41 39 42 41 43 36 28 36 44 54 50 49 45 41 46 38 44 42 45 49 51 46 42 39 35 33 34 31 32 46 50 43 41 40
52 48 51 59 64 74 60 63 49 51 37 44 44 40 41 31 25 32 46 52 53 48 42 39 41 37 41 44 44 44 45 44 42 40 35 31 36 24 30 30 44 41 47 44
46 60 71 73 74 76 58 61 58 58 52 47 42 41 43 28 27 31 43 50 52 47 46 44 43 46 45 41 43 41 43 45 43 45 35 44 27 21 21 24 25 26 30 36
55 65 70 71 72 71 62 61 62 63 54 47 50 53 47 31 30 39 45 54 53 56 51 53 53 55 48 50 51 55 53 58 60 54 53 42 30 26 24 28 35 34 35 37
55 63 61 71 73 66 61 60 61 68 67 49 43 54 52 40 36 42 53 57 60 63 65 62 57 65 59 60 51 56 50 63 62 72 61 54 34 31 30 31 44 36 36 37
55 57 55 54 58 59 59 61 74 74 64 55 53 45 45 48 38 46 64 69 66 57 70 71 66 66 55 63 58 52 54 59 59 68 62 49 33 37 35 38 36 38 39 39
56 55 53 51 65 70 63 55 68 74 71 70 74 57 40 44 44 44 57 66 63 71 71 75 70 62 57 54 47 40 39 56 62 65 62 48 35 36 37 38 40 39 37 37
66 64 58 55 67 72 62 61 77 85 66 94 89 67 46 48 44 45 58 56 56 65 73 68 66 66 70 52 51 39 50 43 48 50 49 40 36 34 34 33 33 35 36 39
75 73 69 70 70 70 65 63 67 83 85 97 88 79 65 51 44 51 65 69 66 65 63 79 69 60 60 47 41 41 40 38 41 40 44 38 36 35 35 35 36 38 39 40
78 91 89 84 86 77 57 66 80 76 69 86 93 83 67 54 46 56 68 68 64 65 80 80 69 57 46 38 36 38 35 37 40 49 48 44 43 39 37 38 40 43 43 43
91 97 90 87 82 70 55 88 97 93 65 75 89 91 82 66 60 60 66 73 65 64 69 81 68 63 51 40 38 40 36 37 40 45 42 42 45 45 46 46 49 49 48 49
97 92 86 78 72 60 57 81 82 93 89 85 82 81 87 70 66 76 73 76 66 59 63 80 77 63 46 42 46 36 35 35 36 41 41 41 45 48 51 52 53 53 53 53
91 83 77 68 57 46 70 82 73 76 78 95 98 95 91 95 95 93 86 77 64 62 75 79 73 63 49 48 49 42 40 40 40 40 41 48 49 54 55 56 57 57 59 62
78 68 64 67 69 86 97 97 99 97 99 97 97 98 95 97 96 96 97 93 79 85 86 76 67 63 59 57 51 50 48 47 48 49 49 51 55 59 60 60 60 63 66 66
61 62 68 81 89 86 87 93 98 98 98 98 98 98 93 93 94 87 91 92 94 87 86 79 74 73 71 61 54 53 55 53 56 58 57 59 60 62 63 65 69 70 71 69
80 93 95 92 86 94 97 99 99 98 97 95 93 94 98 94 86 84 81 83 85 84 85 83 80 73 65 63 62 63 64 67 68 65 65 65 67 70 72 73 76 74 73 75
93 99 98 98 97 98 97 98 98 91 80 78 82 81 79 80 80 77 75 77 76 74 70 73 73 73 67 67 67 67 71 75 71 69 69 70 73 77 78 80 78 80 78 74
86 90 97 98 98 98 96 94 85 79 76 72 74 75 75 78 77 81 78 76 73 75 73 73 70 65 67 72 75 80 79 76 74 75 77 79 81 80 79 80 80 80 78 72
95 97 96 95 93 93 92 92 89 86 81 80 81 83 84 83 80 86 82 82 84 78 80 79 73 73 75 81 79 76 75 75 78 80 82 82 82 82 83 85 85 79 76 74
95 94 96 94 92 92 90 86 81 79 79 83 83 90 96 95 93 89 86 87 88 89 84 79 78 82 82 80 79 77 79 80 83 83 83 83 85 87 89 84 82 77 75 72
94 95 96 93 92 91 91 92 88 85 82 84 90 90 89 93 93 93 89 88 86 84 83 84 82 81 82 83 85 86 85 84 84 85 87 91 95 95 90 85 80 79 75 73
91 94 97 95 92 88 88 88 88 90 91 91 88 90 89 93 92 90 90 87 88 87 86 85 85 85 88 87 86 86 89 91 93 96 96 95 91 88 85 84 81 78 74 63
95 95 95 92 96 95 92 92 95 98 95 95 92 92 95 95 95 95 95 94 93 93 92 92 96 95 93 92 93 95 96 96 96 97 95 92 88 87 87 83 79 72 63 57

GFSNW_prec_cthk_045.txt.gz
RH
46 45 51 49 44 41 41 36 33 27 21 49 56 47 48 43 29 39 53 56 51 43 40 38 30 32 34 32 34 36 34 39 54 48 47 47 46 53 50 56 42 48 56 39
61 53 57 52 47 50 44 40 40 36 24 41 45 48 48 46 36 39 48 51 53 50 45 42 35 32 35 36 35 37 38 42 46 45 48 50 50 54 56 51 47 50 64 43
74 66 65 61 49 53 51 45 49 55 48 24 35 40 46 49 42 42 44 49 56 56 50 41 42 38 39 38 38 39 38 43 41 45 44 48 51 46 47 47 60 48 48 40
86 79 70 61 48 56 58 51 46 41 55 39 39 37 37 43 47 44 50 54 56 57 60 49 46 40 40 43 41 42 42 45 44 46 42 39 48 54 54 50 50 52 42 42
92 84 74 64 54 61 65 58 48 44 43 40 41 44 39 39 40 44 52 50 51 51 60 55 51 44 41 46 51 45 47 54 50 53 46 41 37 41 45 42 38 43 45 43
91 82 68 62 57 68 66 58 50 46 44 45 48 35 35 34 34 34 30 33 54 54 56 59 52 48 46 47 50 47 53 58 55 53 50 46 48 37 35 33 30 31 43 41
91 73 68 61 53 57 66 59 49 59 48 51 34 37 39 37 30 31 22 27 51 52 63 60 55 54 53 49 53 51 49 52 52 56 51 53 29 28 26 26 23 22 26 33
92 69 67 58 43 57 75 66 54 63 59 46 42 42 39 37 27 29 26 27 38 59 65 71 66 68 62 55 53 50 43 45 50 53 58 44 34 31 29 27 26 24 25 29
79 64 56 50 43 58 75 75 58 62 61 49 41 47 42 42 31 29 27 32 49 59 72 77 74 72 64 59 56 54 48 44 53 60 63 65 46 44 37 33 40 31 32 34
65 60 50 43 49 67 80 77 65 63 62 62 58 51 44 45 34 29 27 37 58 64 74 83 72 76 58 64 57 51 59 58 58 68 59 51 41 39 37 39 33 34 37 39
68 53 54 56 64 75 78 79 67 62 59 58 63 57 57 45 38 37 33 48 57 70 72 87 75 73 63 58 51 50 59 68 62 59 51 49 36 38 36 33 38 41 43 44
63 53 63 67 76 87 87 88 72 63 65 77 59 55 49 40 41 43 36 45 51 57 66 78 80 74 68 63 64 52 52 49 48 40 42 41 40 36 35 37 40 43 42 41
53 56 59 58 73 86 85 88 74 74 71 71 71 60 57 44 34 41 47 51 56 61 59 78 79 74 66 64 55 52 52 45 37 39 42 43 41 39 36 35 35 37 36 36
59 60 59 59 60 73 84 84 73 70 67 64 61 60 57 61 53 47 49 46 61 70 79 81 80 73 66 70 61 56 55 38 37 41 38 37 36 35 35 35 35 36 39 40
63 58 55 56 62 65 68 71 76 76 76 78 87 66 82 73 54 52 53 52 59 72 78 75 69 69 71 70 65 57 48 32 36 39 30 34 37 39 37 37 38 41 43 47
74 73 68 57 53 60 68 91 86 87 82 74 97 83 83 91 73 61 55 49 58 66 73 78 75 74 70 76 72 54 45 30 30 34 35 37 42 43 42 43 45 49 51 52
81 79 70 70 76 70 61 72 68 66 82 92 98 93 92 97 82 73 63 61 67 76 80 87 80 76 70 78 71 60 50 36 34 36 39 45 44 45 47 50 53 56 57 59
92 93 97 95 95 91 73 69 80 73 86 97 97 93 90 89 95 88 77 76 82 88 91 89 84 78 74 74 66 62 58 47 46 45 44 42 46 52 55 56 58 62 65 66
95 95 90 89 82 68 64 86 72 65 69 75 81 84 87 86 94 90 89 91 94 91 92 92 89 80 74 62 63 66 61 52 52 52 51 54 57 61 62 65 67 67 70 73
82 77 73 77 65 68 96 93 94 94 91 78 76 80 85 99 99 95 93 94 97 98 98 96 89 84 78 75 70 71 69 67 63 62 65 67 72 72 71 71 71 73 77 81
63 87 93 70 91 90 94 98 98 98 97 86 92 99 96 97 97 98 98 98 98 97 97 96 97 92 81 79 76 75 73 70 68 68 71 80 81 81 82 81 79 81 84 85
79 89 84 84 85 90 97 98 99 98 97 97 98 98 96 97 98 98 97 94 92 89 85 88 88 76 76 79 80 78 76 74 72 77 86 92 89 87 85 85 86 88 88 83
97 92 91 96 98 99 97 98 96 93 92 93 91 90 86 89 92 94 91 89 83 78 78 76 69 64 65 67 69 71 72 74 85 91 89 87 86 89 88 89 91 90 85 75
98 98 98 98 98 97 97 94 91 89 87 87 84 82 79 76 76 79 76 80 77 78 74 72 69 75 80 80 84 86 86 87 87 85 86 88 91 93 94 91 91 87 85 84
98 96 94 95 92 93 90 88 87 84 81 79 84 86 87 83 81 78 78 79 78 78 77 79 83 85 89 92 93 90 90 91 91 92 95 95 93 92 92 91 89 87 84 80
91 90 91 87 85 87 85 81 81 86 86 87 84 86 87 95 94 92 92 87 89 87 86 87 86 86 88 89 88 89 92 95 97 96 95 95 96 97 96 94 90 86 82 81
93 92 92 91 91 88 88 92 91 93 95 96 95 94 95 94 93 94 94 95 96 96 94 93 92 90 92 95 97 98 98 97 97 97 97 97 97 97 96 91 88 86 83 79

GFSNW_prec_cthk_048.txt.gz
RH
76 73 58 46 49 55 50 45 40 20 17 40 45 50 54 55 40 43 46 54 54 50 43 42 38 34 31 31 32 34 37 41 46 45 47 48 46 48 50 61 55 61 61 43
79 78 66 55 67 58 53 51 44 32 19 36 39 43 47 44 47 44 47 51 54 54 49 47 41 36 29 32 35 36 38 40 42 45 47 47 47 48 48 52 58 61 65 42
85 83 77 68 67 65 55 57 56 59 46 18 32 38 42 44 37 45 40 42 53 57 55 47 40 38 32 35 36 39 42 46 40 38 33 42 49 45 50 53 63 55 49 36
91 88 85 78 71 65 65 64 55 45 49 32 30 35 37 42 36 37 33 36 46 62 62 54 45 44 40 40 40 43 45 47 45 38 40 44 46 42 45 47 50 54 46 48
97 91 88 83 81 80 74 67 54 50 42 27 36 41 39 41 32 40 39 38 34 54 64 57 54 55 51 41 44 46 47 51 45 46 45 45 45 40 46 53 52 47 40 38
98 94 89 88 87 87 76 71 56 46 46 43 40 31 32 36 30 33 44 34 32 45 52 58 57 57 57 51 50 48 50 56 51 54 57 57 53 39 37 35 33 34 37 31
98 96 86 92 83 67 57 65 58 55 55 52 35 31 35 36 27 27 29 38 41 38 55 63 60 64 59 57 52 51 58 61 58 66 64 57 37 32 30 30 28 27 28 28
98 94 88 93 92 90 74 64 66 57 55 51 43 43 39 41 34 31 27 29 36 48 57 69 66 76 66 64 63 54 54 58 65 66 62 46 33 27 35 33 27 26 26 27
98 92 96 98 97 83 68 71 73 63 73 49 47 48 45 41 37 35 28 25 32 39 56 73 75 87 73 72 63 59 56 54 62 66 58 51 34 35 38 39 35 33 33 33
97 96 97 98 90 70 61 70 77 71 70 63 54 48 44 46 39 36 31 25 25 33 46 72 82 81 77 73 67 64 65 64 63 66 60 50 40 38 34 35 31 31 32 36
98 98 98 95 80 67 60 58 81 78 67 74 71 57 46 44 34 34 30 33 33 40 45 61 85 91 81 74 66 61 62 68 69 67 66 58 40 34 30 28 30 31 34 37
97 97 90 82 74 68 59 72 81 84 75 75 74 70 64 47 36 33 37 27 28 27 47 62 74 81 79 69 73 61 62 55 59 54 54 50 41 25 27 31 32 34 36 39
95 87 81 78 72 63 64 82 87 88 76 66 72 71 72 64 50 39 34 37 45 36 31 52 64 70 70 68 70 66 58 54 54 57 52 48 35 30 34 34 34 36 38 38
85 79 72 55 54 53 65 80 88 94 78 72 70 65 62 64 59 53 46 41 45 48 50 50 61 68 66 71 70 66 59 58 59 58 56 40 31 30 29 29 31 32 34 35
73 72 71 72 72 69 79 92 97 99 85 68 79 64 58 57 52 47 49 46 41 53 57 65 64 72 71 77 76 74 64 61 64 56 48 27 26 26 29 29 30 32 33 35
67 74 71 70 77 83 88 95 99 93 91 72 77 69 67 64 63 56 53 54 45 52 53 67 71 69 72 79 76 67 62 62 62 56 46 32 30 30 32 36 36 36 37 40
61 64 67 70 75 82 87 91 87 90 84 90 81 71 71 74 73 78 73 67 59 59 60 62 73 78 79 89 76 62 59 60 62 59 54 44 35 35 38 41 42 43 46 49
64 62 57 60 68 75 85 85 78 82 96 96 83 64 61 70 74 82 83 76 71 64 65 67 73 81 84 82 67 65 65 65 65 66 57 47 45 43 44 46 48 49 53 56
76 75 64 69 64 72 83 79 71 72 83 87 77 80 87 93 89 98 94 86 82 74 69 70 72 74 74 64 66 67 72 67 62 67 66 64 59 52 51 54 57 60 65 70
81 83 86 86 72 58 72 85 85 82 76 71 71 75 88 84 90 94 99 93 95 91 75 76 79 78 69 69 79 81 74 66 64 70 74 71 70 62 63 67 74 78 80 81
78 78 75 71 82 95 99 98 99 88 84 73 66 74 82 80 81 80 89 99 97 92 88 87 84 86 79 86 85 82 78 76 77 78 75 74 73 74 75 82 90 92 91 89
77 78 63 77 93 96 96 89 83 77 72 77 74 71 70 76 89 96 96 99 98 96 92 91 88 91 96 97 91 91 90 86 87 86 84 84 86 84 86 91 93 93 91 90
90 98 97 99 96 98 97 93 92 93 93 90 94 97 97 97 99 99 98 98 98 98 98 98 94 88 94 93 91 89 83 83 83 85 86 86 87 89 93 95 94 90 90 94
98 98 96 98 94 96 98 98 98 98 98 98 99 99 98 96 98 98 98 98 98 97 98 97 90 84 82 82 83 81 84 87 87 85 86 89 94 95 93 93 93 95 96 87
98 98 97 98 98 98 98 98 97 95 95 96 93 95 96 93 92 93 93 93 93 92 89 82 77 76 77 81 87 91 93 94 95 94 90 92 94 95 96 98 98 91 86 92
97 96 98 97 96 95 93 93 91 89 87 87 86 89 91 93 93 90 89 85 89 91 91 91 91 91 92 94 94 94 95 96 96 95 94 96 97 97 98 96 95 95 95 91
94 96 96 96 94 92 91 91 91 93 93 92 89 91 93 94 92 94 96 95 96 97 96 97 95 96 96 96 96 97 97 97 97 96 97 98 98 97 97 97 97 94 90 87